Flag for Senegal Weather past 2 weeks in Dakar, Senegal

Now
81 °F

Sunny.


Feels Like: 83 °F
Forecast: 74 / 82 °F
Wind: 17 mph from North

Location: Dakar / Yoff

Current Time: May 27, 2015 at 2:33:00 PM

Latest Report: May 27, 2015 at 2:00 PM


Visibility: 10 mi

Pressure: 29.92 "Hg

Humidity: 66%

Dew point: 68 °F

Location of DakarLocation

Historic Weather in Dakar — Graph

°F

Dakar temperature yesterday

Maximum temperature yesterday: 81 °F (at 11:30 AM)
Minimum temperature yesterday: 75 °F (at 12:00 AM)
Average temperature yesterday: 77 °F

Past Weeks' High & Low Weather Summary

 TemperatureHumidityPressure
High84 °F (May 22, 2:00 PM)94% (May 16, 3:30 AM)30.04 "Hg (May 16, 3:30 AM)
Low72 °F (May 12, 11:30 PM)65% (May 12, 1:00 PM)29.80 "Hg (May 14, 4:30 PM)
Average76 °F79%29.90 "Hg
* Reported May 12 1:00 PM — May 27 1:30 PM, Dakar, Weather by CustomWeather, © 2015

Note: Actual official high and low records may vary slightly from our data, if they occured in-between our weather recording intervals... More about our weather records

Advertising

Dakar weather history for previous 24 hours

 ConditionsComfort  
Time TempWeatherWind HumidityBarometerVisibility
1:30 PM
Wed, May 27
79 °FSunny.17 mph70%29.92 "Hg10 mi
1:00 PM81 °FSunny.15 mph66%29.92 "Hg10 mi
12:30 PM79 °FPassing clouds.15 mph70%29.95 "HgN/A
12:00 PM81 °FPassing clouds.15 mph70%29.95 "HgN/A
11:30 AM79 °FSunny.16 mph70%29.92 "Hg10 mi
11:00 AM79 °FSunny.15 mph70%29.92 "Hg10 mi
10:30 AM79 °FSunny.16 mph70%29.92 "Hg10 mi
10:00 AM79 °FSunny.14 mph70%29.92 "Hg10 mi
9:30 AM77 °FSunny.13 mph74%29.92 "Hg10 mi
9:00 AM77 °FSunny.21 mph74%29.89 "Hg10 mi
8:30 AM77 °FSunny.20 mph74%29.89 "Hg10 mi
8:00 AM75 °FSunny.18 mph78%29.89 "Hg10 mi
7:30 AM75 °FSunny.18 mph78%29.89 "Hg10 mi
7:00 AM73 °FSunny.16 mph83%29.86 "Hg10 mi
6:30 AM73 °FClear.18 mph83%29.86 "Hg10 mi
6:00 AM73 °FClear.18 mph83%29.86 "Hg10 mi
5:30 AM73 °FClear.18 mph89%29.86 "Hg10 mi
5:00 AM73 °FClear.17 mph83%29.86 "Hg10 mi
4:30 AM73 °FClear.15 mph89%29.86 "Hg10 mi
3:30 AM73 °FClear.14 mph89%29.86 "Hg10 mi
3:00 AM75 °FClear.14 mph83%29.86 "Hg10 mi
2:30 AM75 °FClear.12 mph83%29.89 "Hg10 mi
2:00 AM75 °FClear.12 mph83%29.89 "Hg10 mi
1:30 AM75 °FClear.9 mph83%29.89 "Hg10 mi
1:00 AM75 °FClear.12 mph83%29.89 "Hg10 mi
12:30 AM75 °FClear.13 mph83%29.92 "Hg10 mi
12:00 AM75 °FClear.13 mph83%29.92 "Hg10 mi
11:30 PM
Tue, May 26
75 °FClear.14 mph83%29.92 "Hg10 mi
11:00 PM75 °FClear.16 mph83%29.89 "Hg10 mi
10:30 PM75 °FClear.13 mph83%29.89 "Hg10 mi
10:00 PM75 °FClear.13 mph83%29.89 "Hg10 mi
9:30 PM75 °FClear.15 mph83%29.89 "Hg10 mi
9:00 PM75 °FClear.15 mph83%29.89 "Hg10 mi
8:30 PM75 °FClear.15 mph83%29.86 "Hg10 mi
8:00 PM75 °FClear.15 mph83%29.86 "Hg10 mi
7:30 PM77 °FSunny.15 mph79%29.86 "Hg10 mi
7:00 PM77 °FSunny.17 mph79%29.86 "Hg10 mi
6:30 PM79 °FSunny.18 mph74%29.86 "Hg10 mi
6:00 PM79 °FSunny.18 mph74%29.86 "Hg10 mi
5:30 PM79 °FSunny.18 mph74%29.86 "Hg10 mi
5:00 PM81 °FSunny.16 mph66%29.86 "Hg10 mi
4:30 PM81 °FSunny.17 mph66%29.86 "Hg10 mi
4:00 PM81 °FSunny.18 mph66%29.86 "Hg10 mi
3:30 PM81 °FSunny.18 mph70%29.86 "Hg10 mi
3:00 PM81 °FSunny.9 mph70%29.86 "Hg10 mi
2:30 PM81 °FSunny.18 mph70%29.89 "Hg10 mi
2:00 PM81 °FSunny.18 mph70%29.89 "Hg10 mi
Weather by CustomWeather, © 2015

See weather overviewHow to use our weather pages